Seychelles, Seychelles

12:56 AM +04 on October 18, 2017 (GMT +0400)
Seychelles

Weather History for FSIA - March, 2013

Change the Weather History Date:

Monday, March 4, 2013

  Actual Average Record
Temperature  
Mean Temperature 80 °F -  
Max Temperature 84 °F 85 °F 89 °F (1998)
Min Temperature 77 °F 77 °F 73 °F (2004)
Cooling Degree Days 16    
Growing Degree Days 30 (Base 50)    
Moisture  
Dew Point 75 °F    
Average Humidity 78    
Maximum Humidity 84    
Minimum Humidity 70    
Precipitation  
Precipitation 0.24 in 0.22 in - ()
Sea Level Pressure  
Sea Level Pressure 29.83 in    
Wind  
Wind Speed 11 mph ()    
Max Wind Speed 18 mph    
Max Gust Speed -    
Visibility 7.2 miles    
Events Rain    
Averages and records for this station are not official NWS values.
T = Trace of Precipitation, MM = Missing Value Source: Averaged Metar Reports

Daily Weather History Graph

Daily Weather History Graph

Search for Another Location

Airport or City:

Trip Planner

Search our weather history database for the weather conditions in past years. The results will help you decide how hot, cold, wet, or windy it might be!

Date:

Astronomy

Mar. 04, 2013 Rise Set
Actual Time 6:24 AM +04 6:34 PM +04
Civil Twilight 6:03 AM +04 6:55 PM +04
Nautical Twilight 5:39 AM +04 7:20 PM +04
Astronomical Twilight 5:14 AM +04 7:44 PM +04
Moon No Moon Rise 11:53 AM +04 (3/4)
Length of Visible Light 12h 52m
Length of Day
12h 10m
Waning Gibbous, 57% of the Moon is Illuminated
Mar 4
Waning Gibbous
Mar 5
Last Quarter
Mar 11
New
Mar 19
First Quarter
Mar 27
Full

Hourly Weather History & Observations

Time (+04) Temp. Heat Index Dew Point Humidity Pressure Visibility Wind Dir Wind Speed Gust Speed Precip Events Conditions
12:00 AM 82.4 °F 89.5 °F 75.2 °F 79% 29.86 in 6.2 mi WNW 16.1 mph - N/A   Mostly Cloudy
1:00 AM 80.6 °F 86.2 °F 75.2 °F 84% 29.80 in 6.2 mi West 9.2 mph - N/A   Mostly Cloudy
3:00 AM 80.6 °F 86.2 °F 75.2 °F 84% 29.80 in 6.2 mi West 8.1 mph - N/A   Mostly Cloudy
4:00 AM 81 °F - 74 °F 75% 29.81 in 12 mi West 8.1 mph - -   Partly Cloudy
4:00 AM 80.6 °F 86.2 °F 75.2 °F 84% 29.80 in 6.2 mi West 8.1 mph - N/A   Mostly Cloudy
5:00 AM 80.6 °F 86.2 °F 75.2 °F 84% 29.80 in 6.2 mi NNW 15.0 mph - N/A   Mostly Cloudy
6:00 AM 80.6 °F 86.2 °F 75.2 °F 84% 29.80 in 6.2 mi NW 11.5 mph - N/A Rain Light Rain Showers
7:00 AM 80.6 °F 86.2 °F 75.2 °F 84% 29.83 in 6.2 mi WNW 9.2 mph - N/A   Mostly Cloudy
8:00 AM 82.4 °F 88.2 °F 73.4 °F 74% 29.86 in 6.2 mi ENE 12.7 mph - N/A   Mostly Cloudy
9:00 AM 82.4 °F 89.5 °F 75.2 °F 79% 29.89 in 6.2 mi West 6.9 mph - N/A Rain Light Rain Showers
10:00 AM 82 °F - 76 °F 78% 29.90 in 16 mi NW 12.7 mph - - Rain Light Rain Showers
10:00 AM 82.4 °F 90.9 °F 77.0 °F 84% 29.89 in 6.2 mi NW 12.7 mph - N/A Rain Light Rain Showers
11:00 AM 82.4 °F 89.5 °F 75.2 °F 79% 29.89 in 6.2 mi NNW 13.8 mph - N/A Rain Light Rain Showers
12:00 PM 80.6 °F 86.2 °F 75.2 °F 84% 29.86 in 6.2 mi WNW 17.3 mph - N/A Rain Light Rain Showers
1:00 PM 80.6 °F 86.2 °F 75.2 °F 84% 29.83 in 6.2 mi NW 8.1 mph - N/A   Mostly Cloudy
2:00 PM 82.4 °F 89.5 °F 75.2 °F 79% 29.80 in 6.2 mi NNW 13.8 mph - N/A   Mostly Cloudy
3:00 PM 84.2 °F 90.9 °F 73.4 °F 70% 29.80 in 6.2 mi NNW 17.3 mph - N/A   Mostly Cloudy
4:00 PM 84.2 °F 90.9 °F 73.4 °F 70% 29.77 in 6.2 mi NNW 18.4 mph - N/A   Mostly Cloudy
5:00 PM 84.2 °F 90.9 °F 73.4 °F 70% 29.77 in 6.2 mi NNW 17.3 mph - N/A   Mostly Cloudy
6:00 PM 84.2 °F 90.9 °F 73.4 °F 70% 29.80 in 6.2 mi NNW 13.8 mph - N/A   Mostly Cloudy
7:00 PM 84.2 °F 90.9 °F 73.4 °F 70% 29.83 in 6.2 mi NW 11.5 mph - N/A   Mostly Cloudy
8:00 PM 82.4 °F 88.2 °F 73.4 °F 74% 29.83 in 6.2 mi NW 10.4 mph - N/A   Scattered Clouds
9:00 PM 82.4 °F 89.5 °F 75.2 °F 79% 29.83 in 6.2 mi NW 15.0 mph - N/A   Mostly Cloudy
10:00 PM 82 °F - 74 °F 71% 29.86 in 16 mi NW 13.8 mph - -   Partly Cloudy
10:00 PM 82.4 °F 88.2 °F 73.4 °F 74% 29.83 in 6.2 mi NW 13.8 mph - N/A   Scattered Clouds
11:00 PM 82.4 °F 89.5 °F 75.2 °F 79% 29.86 in 6.2 mi NW 13.8 mph - N/A   Scattered Clouds